SCP
0 0 0 0 0 0 0 0 0 0 0 0 0 0 0 0 0 0 0 0 0 0 0 0 0 0 0 0 0 0 1 1 0 0 0 0 0 0 0 0 0 0 0 0 0 0 0 0 0 0 0 0 0 0
0 0 0 0 0 0 0 0 0 0 0 0 0 0 0 0 0 0 0 0 0 0 0 0 0 0 0 0 0 0 1 1 1 1 0 1 0 0 0 0 0 0 0 0 0 0 0 0 0 0 0 0 0 0
0 0 0 0 0 0 0 0 0 0 0 0 0 0 0 0 0 0 0 0 0 0 0 0 0 0 0 0 0 0 0 1 1 1 1 1 1 0 0 0 0 0 0 0 0 0 0 0 0 0 0 0 0 0
0 0 0 0 0 0 0 0 0 0 0 0 0 0 0 0 0 0 0 0 0 0 0 0 0 0 0 0 0 0 0 0 1 1 1 1 0 0 0 0 0 0 0 0 0 0 0 0 0 0 0 0 0 0
0 0 0 0 0 0 0 0 0 0 0 0 0 0 0 0 0 0 0 0 0 0 0 0 0 0 0 0 0 0 0 0 0 1 1 1 1 0 0 0 0 0 0 0 1 1 1 1 1 0 0 0 0 0
0 0 0 0 0 0 0 0 0 0 0 0 0 0 0 0 0 0 0 0 0 0 0 0 0 0 0 0 0 0 0 0 0 0 0 1 1 1 0 0 0 0 0 0 1 1 1 0 0 0 0 0 0 0
0 0 0 0 0 0 0 0 0 0 0 0 0 0 0 0 0 0 0 0 0 0 0 0 0 0 0 0 0 0 0 0 0 0 0 0 0 0 0 0 0 0 0 0 0 0 0 0 0 0 0 0 0 0
0 0 0 0 0 0 0 0 0 0 0 0 0 0 0 0 0 0 0 0 0 0 0 0 0 0 0 0 0 0 0 0 0 0 0 0 0 0 0 0 0 0 0 0 0 0 0 0 0 0 0 0 0 0
0 0 0 0 0 0 0 0 0 0 0 0 0 0 0 0 0 0 0 0 0 0 0 0 0 0 0 0 0 0 0 0 0 0 0 0 0 0 0 0 0 0 0 0 0 0 0 0 0 0 0 0 0 0
0 0 0 0 0 0 0 0 0 0 0 0 0 0 0 0 0 0 0 0 0 0 0 0 0 0 0 0 0 0 0 0 0 0 0 0 0 0 0 0 0 0 0 0 0 0 0 0 0 0 0 1 0 0
0 0 0 0 0 0 0 0 0 0 0 0 0 0 0 0 0 0 0 0 0 0 0 0 0 0 0 0 0 0 0 0 0 0 0 0 0 0 0 0 0 0 0 0 0 0 0 0 0 0 0 0 0 0
0 0 0 0 0 0 0 0 0 0 0 0 0 0 0 0 0 0 0 0 0 0 0 0 0 0 0 0 0 0 0 0 0 0 0 0 0 0 0 0 0 0 0 0 0 0 0 0 0 0 0 0 0 0
0 0 0 0 0 0 0 0 0 0 0 0 0 0 0 0 0 0 0 0 0 0 0 0 0 0 0 0 0 0 0 0 0 0 0 0 0 0 0 0 0 0 0 0 0 0 0 0 0 0 0 0 0 0
0 0 0 0 0 0 0 0 0 0 0 0 0 0 0 0 0 0 0 0 0 0 0 0 0 0 0 0 0 0 0 0 0 0 0 0 0 0 0 0 0 0 0 0 0 0 0 0 0 0 0 0 0 0
0 0 0 0 0 0 0 0 0 0 0 0 0 0 0 0 0 0 0 0 0 0 0 0 0 0 0 0 0 0 0 0 0 0 0 0 0 0 0 0 0 0 0 0 0 0 0 0 0 0 0 0 0 0
0 0 0 0 0 0 0 0 0 0 0 0 0 0 0 0 0 0 0 0 0 0 0 0 0 0 0 0 0 0 0 0 0 0 0 0 0 0 0 0 0 0 0 0 0 0 0 0 0 0 0 0 0 0
0 0 0 0 0 0 0 0 0 0 0 0 0 0 0 0 0 0 0 0 0 0 0 0 0 0 0 0 0 0 0 0 0 0 0 0 0 0 0 0 0 0 0 0 0 0 0 0 0 0 0 0 0 0
0 0 0 0 0 0 0 0 0 0 0 0 0 0 0 0 0 0 0 0 0 0 0 0 0 0 0 0 0 0 0 0 0 0 0 0 0 0 0 0 0 0 0 0 0 0 0 0 0 0 0 0 0 0
0 0 0 0 0 0 0 0 0 0 0 0 0 0 0 0 0 0 0 0 0 0 0 0 0 0 0 0 0 0 0 0 0 0 0 0 0 0 0 0 0 0 0 0 0 0 0 0 0 0 0 0 0 0
0 0 0 0 0 0 0 0 0 0 0 0 0 0 0 0 0 0 0 0 0 0 0 0 0 0 0 0 0 0 0 0 0 0 0 0 0 0 0 0 0 0 0 0 0 0 0 0 0 0 0 0 0 0
0 0 0 0 0 0 0 0 0 0 0 0 0 0 0 0 0 0 0 0 0 0 0 0 0 0 0 0 0 0 0 0 0 0 0 0 0 0 0 0 0 0 0 0 0 0 0 0 0 0 0 0 0 0
0 0 0 0 0 0 0 0 0 0 0 0 0 0 0 0 0 0 0 0 0 0 0 0 0 0 0 0 0 0 0 0 0 0 0 0 0 0 0 0 0 0 0 0 0 0 0 0 0 0 0 0 0 0
0 0 0 0 0 0 0 0 0 0 0 0 0 0 0 0 0 0 0 0 0 0 0 0 0 0 0 0 0 0 0 0 0 0 0 0 0 0 0 0 0 0 0 0 0 0 0 0 0 0 0 0 0 0
0 0 0 0 0 0 0 0 0 0 0 0 0 0 0 0 0 0 0 0 0 0 0 0 0 0 0 0 0 0 0 0 0 0 0 0 0 0 0 0 0 0 0 0 0 0 0 0 0 0 0 0 0 0
0 0 0 0 0 0 0 0 0 0 0 0 0 0 0 0 0 0 0 0 0 0 0 0 0 0 0 0 0 0 0 0 0 0 0 0 0 0 0 0 0 0 0 0 0 0 0 0 0 0 0 0 0 0
0 0 0 0 0 0 0 0 0 0 0 0 0 0 0 0 0 0 0 0 0 0 0 0 0 0 0 0 0 0 0 0 0 0 0 0 0 0 0 0 0 0 0 0 0 0 0 0 0 0 0 0 0 0
0 0 0 0 0 0 0 0 0 0 0 0 0 0 0 0 0 0 0 0 0 0 0 0 0 0 0 0 0 0 0 0 0 0 0 0 0 0 0 0 0 0 0 0 0 0 0 0 0 0 0 0 0 0
0 0 0 0 0 0 0 0 0 0 0 0 0 0 0 0 0 0 0 0 0 0 0 0 0 0 0 0 0 0 0 0 0 0 0 0 0 0 0 0 0 0 0 0 0 0 0 0 0 0 0 0 0 0
0 0 0 0 0 0 0 0 0 0 0 0 0 0 0 0 0 0 0 0 0 0 0 0 0 0 0 0 0 0 0 0 0 0 0 0 0 0 0 0 0 0 0 0 0 0 0 0 0 0 0 0 0 0
0 0 0 0 0 0 0 0 0 0 0 0 0 0 0 0 0 0 0 0 0 0 0 0 0 0 0 0 0 0 0 0 0 0 0 0 0 0 0 0 0 0 0 0 0 0 0 0 0 0 0 0 0 0
0 0 0 0 0 0 0 0 -0 -0 -0 -0 -0 0 0 0 0 0 0 0 0 0 0 0 0 0 0 0 0 0 0 0 0 0 0 0 0 0 0 0 0 0 0 0 0 0 0 0 0 0 0 0 0 0
-0 -0 -0 -0 -0 0 -0 -0 -0 0 0 0 0 0 0 0 0 0 0 0 0 0 0 0 0 0 0 0 0 0 0 0 0 0 0 0 0 0 0 0 0 0 0 0 0 0 0 0 0 0 0 0 0 0
0 0 0 -0 0 -0 -0 -0 0 0 0 -0 0 0 0 -0 0 0 0 0 0 0 0 0 0 0 0 0 0 0 0 0 0 0 0 0 0 0 0 0 0 0 0 0 0 0 0 0 0 0 0 0 0 0
Wind_Speed_500mb
69 67 65 62 57 52 46 41 36 31 26 22 19 17 15 16 18 17 16 13 18 14 7 10 5 4 5 4 9 6 8 11 10 14 14 9 12 6 8 6 9 17 14 14 8 15 22 11 12 9 9 6 3 6
70 71 68 64 59 53 47 42 37 32 27 23 20 17 14 12 14 14 11 15 14 11 6 18 14 10 6 1 5 3 7 3 6 8 4 3 8 7 8 15 6 8 7 8 8 10 7 5 1 4 4 10 10 7
74 73 70 65 60 54 48 42 38 32 28 24 20 17 13 12 13 11 7 8 14 8 13 10 14 14 6 4 4 7 1 3 2 3 5 3 5 5 9 10 6 9 5 7 7 9 5 5 12 16 14 12 5 6
77 75 71 66 60 55 48 43 38 33 27 24 21 18 14 12 13 10 4 7 17 6 10 17 17 8 10 5 2 3 6 4 1 3 5 5 6 4 3 6 10 11 9 4 11 11 7 2 5 5 0 3 4 8
78 75 71 66 60 54 48 43 38 32 27 24 21 18 15 12 12 10 5 8 9 11 5 11 16 13 11 5 3 5 4 4 6 7 7 2 2 6 2 6 13 12 4 10 6 4 5 18 14 14 14 14 12 12
79 75 70 64 59 53 47 41 36 31 27 23 21 18 15 12 9 9 3 4 4 14 4 9 6 11 12 10 8 8 6 4 5 7 3 2 1 5 7 9 8 11 12 11 3 5 12 11 18 18 16 15 13 12
77 72 67 62 57 51 45 40 35 30 25 22 20 17 14 12 10 7 4 3 4 10 3 8 13 9 13 7 5 5 4 4 5 4 7 6 5 7 6 15 16 15 16 16 19 17 21 13 12 15 13 13 10 8
73 69 65 60 55 49 43 38 32 28 23 20 19 17 14 11 10 5 4 2 5 3 2 4 6 14 9 10 11 6 7 6 5 3 5 10 5 8 8 18 10 11 11 13 16 12 23 30 10 21 11 11 12 16
70 66 62 58 53 47 41 35 30 26 22 19 18 16 13 9 5 9 4 2 3 3 1 3 7 8 6 6 4 6 4 8 3 7 6 6 8 11 9 14 14 19 12 16 24 22 22 18 18 18 21 32 15 20
67 64 58 54 50 45 39 34 28 24 21 19 21 8 7 10 8 8 2 2 2 2 0 3 1 5 3 8 6 5 2 1 6 5 3 8 17 21 14 13 13 22 17 20 25 21 5 5 14 18 15 26 22 25
63 60 55 51 46 42 37 32 27 24 22 22 9 7 11 16 8 4 6 8 5 8 4 2 1 3 4 6 4 4 2 2 6 7 6 6 8 9 15 16 14 17 17 14 11 11 12 13 12 18 27 30 27 26
54 51 50 46 42 39 35 31 27 25 21 19 13 15 15 5 5 8 6 5 8 5 7 5 6 3 1 3 5 3 3 4 4 2 6 6 11 20 18 13 6 10 16 11 7 13 16 17 22 31 32 30 29 31
51 42 43 44 39 35 32 29 26 24 24 23 7 6 4 4 4 10 15 7 9 8 4 6 8 5 2 2 1 5 5 3 2 6 3 8 14 17 16 14 13 13 14 16 18 18 21 27 30 32 35 32 34 33
46 38 41 41 37 32 29 28 27 29 21 6 7 3 5 7 6 3 2 6 7 5 4 5 8 6 5 8 2 5 2 4 5 6 4 11 21 20 11 9 7 9 9 11 14 18 23 27 32 32 32 32 32 32
59 50 46 40 36 32 29 29 30 31 7 4 2 6 7 3 5 8 7 11 7 4 3 7 6 4 7 6 4 2 7 7 6 3 7 14 18 16 6 8 3 8 12 12 15 22 26 31 33 35 31 29 28 28
54 52 44 39 33 30 28 28 31 14 6 5 4 5 5 10 12 11 9 10 6 2 3 3 4 6 6 3 8 8 4 6 7 7 12 15 17 15 12 8 2 8 11 14 18 25 31 34 36 35 34 30 28 25
53 40 41 38 30 28 29 31 24 5 6 5 5 5 3 4 9 9 4 2 3 3 4 1 7 5 3 5 6 4 3 10 10 11 14 17 17 12 11 8 4 6 10 15 20 27 32 37 33 33 32 30 28 25
24 32 32 30 30 29 29 13 8 6 6 5 6 9 5 7 10 10 4 7 3 2 1 3 2 6 4 7 6 10 12 8 8 13 17 23 22 11 6 3 3 6 10 15 21 28 35 35 27 25 27 30 26 22
44 34 25 19 15 16 7 5 9 6 6 7 7 6 6 6 5 4 1 6 5 2 0 4 5 7 6 1 6 12 7 7 10 12 15 19 18 12 7 3 5 7 9 14 21 27 31 24 20 21 24 27 21 18
42 38 38 33 23 10 8 5 8 4 4 5 6 8 7 6 6 5 3 4 3 3 7 7 4 2 2 3 2 1 3 5 8 13 12 11 14 10 6 6 4 5 9 13 18 25 29 21 17 20 22 25 22 19
37 32 30 25 26 14 8 5 4 3 4 6 7 5 4 4 6 6 5 3 7 7 7 6 3 0 1 2 4 3 6 3 3 6 10 14 13 10 6 4 3 3 5 10 15 22 26 19 17 20 23 25 22 19
32 27 18 15 11 8 7 5 5 2 2 4 4 4 5 7 9 10 7 12 12 16 12 8 4 4 4 2 4 8 8 7 10 9 11 12 14 12 9 7 6 7 10 12 17 19 21 23 20 22 24 26 32 24
32 30 13 7 6 7 5 6 3 4 5 8 6 6 8 9 7 6 10 14 19 18 21 21 20 19 21 22 21 20 16 14 12 12 13 13 15 14 12 12 12 13 16 17 19 22 22 26 28 28 26 32 30 31
22 7 6 5 5 6 4 4 3 5 6 8 7 6 8 10 7 11 10 23 22 19 19 22 23 28 30 32 35 35 30 27 27 25 21 21 23 23 22 20 19 21 19 19 20 22 24 28 34 38 34 35 36 37
5 6 5 5 4 6 6 9 8 8 7 8 7 7 7 9 7 7 11 13 15 23 23 22 24 29 34 35 36 38 37 36 39 43 41 35 34 33 35 36 35 33 29 28 28 26 25 26 29 31 33 39 43 44
4 5 7 8 9 6 8 8 9 12 8 10 11 7 7 8 8 10 7 12 17 18 14 18 22 25 27 30 34 37 41 39 40 45 48 49 53 53 51 48 46 44 38 32 30 32 33 33 32 35 36 40 44 47
4 6 8 7 5 8 9 12 10 12 13 11 9 12 8 9 10 8 9 6 12 15 17 17 18 22 25 27 29 31 32 33 37 41 40 42 43 47 50 49 48 45 35 37 32 31 32 33 34 33 33 34 37 42
7 8 12 15 11 11 8 8 10 13 14 17 14 15 10 9 6 9 2 9 17 19 19 15 12 12 12 13 14 16 16 18 24 32 37 38 42 39 38 34 30 39 38 33 29 24 24 25 26 28 30 33 33 34
7 8 13 10 5 9 12 13 16 19 19 19 22 22 29 19 19 23 27 26 23 24 25 23 18 17 18 18 20 18 18 17 18 19 21 23 18 20 16 13 13 17 18 19 30 36 38 40 41 38 36 35 35 34
10 16 11 9 9 10 15 21 18 20 25 26 25 27 32 35 35 33 32 31 33 35 35 35 34 33 35 33 33 32 30 29 28 28 30 29 26 23 22 22 21 22 24 25 27 27 38 44 45 44 44 39 30 29
5 13 13 17 16 19 22 23 22 24 24 27 31 37 42 40 41 43 45 46 46 47 49 51 51 50 49 50 49 49 51 44 41 39 38 36 35 35 34 32 31 34 35 33 32 31 32 32 31 30 29 27 26 27
14 23 18 21 25 22 19 21 27 32 34 36 41 39 39 31 32 34 23 18 23 27 31 35 40 43 41 44 45 46 49 49 48 45 45 43 39 36 34 33 30 32 36 30 27 25 24 22 21 21 21 22 23 25
19 22 20 18 14 13 17 14 11 15 22 25 25 26 27 25 14 11 7 5 7 12 16 20 22 24 27 30 31 32 35 35 39 41 44 48 52 50 42 33 31 30 28 25 25 22 20 17 16 22 27 31 33 34
Wind_Direction_500mb
196 190 186 185 183 183 183 182 180 177 177 175 171 168 165 171 181 187 196 192 189 215 201 198 207 197 199 235 275 62 224 197 220 239 244 186 252 167 249 286 256 253 238 225 250 264 266 125 149 261 98 178 287 300
189 187 184 183 181 181 180 179 177 177 177 176 172 168 162 159 169 177 203 215 208 205 229 219 218 206 194 338 308 286 339 347 352 269 232 146 193 182 286 258 179 243 286 319 265 20 56 187 278 147 228 265 298 308
186 183 181 180 179 178 178 177 176 176 177 175 171 167 161 152 159 172 206 217 196 220 228 225 222 231 231 234 220 293 118 328 289 221 326 353 213 252 223 232 277 198 213 253 283 120 245 259 247 257 262 267 290 334
181 180 178 177 177 177 177 176 175 176 175 173 170 167 158 153 153 141 92 176 184 207 244 169 206 192 226 241 269 268 300 304 11 320 260 276 266 236 302 341 277 25 173 251 252 222 269 226 352 316 271 103 49 11
179 178 176 175 176 176 176 176 175 176 175 173 170 167 163 157 165 166 108 78 179 191 271 141 186 206 207 216 233 291 302 301 275 248 241 245 27 223 213 282 250 190 232 251 34 79 279 61 45 65 76 61 47 30
177 176 174 174 174 175 176 176 176 176 175 173 171 170 170 169 164 163 241 285 4 196 240 192 148 163 196 214 225 250 276 282 268 286 296 181 346 269 244 249 122 186 209 217 144 121 120 87 69 69 59 40 31 11
173 172 171 172 174 175 175 176 177 177 176 175 173 172 173 174 179 187 225 210 4 166 241 186 166 177 188 196 195 201 204 229 258 273 241 277 199 239 263 261 164 218 242 235 210 163 127 85 90 57 36 8 357 11
168 169 170 171 173 174 175 176 178 179 177 177 174 171 172 170 159 170 173 31 27 139 185 245 129 169 174 186 181 175 198 195 200 281 234 252 194 230 254 251 240 223 209 182 170 190 159 134 134 74 24 63 70 73
167 168 169 170 172 173 174 175 178 179 178 178 173 163 158 174 178 213 221 298 359 154 194 248 216 161 159 157 139 158 190 223 146 241 222 245 214 231 241 276 244 190 171 182 170 153 133 124 96 82 68 62 74 84
165 168 168 170 173 174 174 174 174 176 175 172 161 149 179 190 172 170 221 8 203 248 238 263 215 158 237 182 135 189 211 315 237 112 243 237 253 258 289 281 263 214 230 211 199 206 206 73 37 43 69 100 111 105
164 169 170 172 173 174 175 173 172 168 167 159 156 179 178 154 144 181 208 223 177 193 191 138 221 127 24 243 100 357 71 143 249 117 265 206 241 47 326 308 282 249 226 179 151 126 96 81 92 108 110 116 114 109
163 170 174 173 175 176 175 172 171 169 166 168 155 135 137 150 172 207 189 185 222 151 138 191 131 192 132 96 239 130 251 210 252 42 247 233 43 5 359 341 328 171 168 180 172 118 105 110 128 130 128 125 121 117
161 168 170 171 172 174 175 174 172 165 152 145 131 158 182 157 134 205 180 172 173 146 111 152 169 170 157 188 176 217 220 236 314 227 267 53 359 356 16 39 71 101 125 128 122 117 122 128 133 138 134 131 128 123
165 166 164 165 166 170 173 174 172 159 147 159 167 53 225 182 215 176 171 84 109 127 114 157 163 206 158 185 162 207 88 272 242 234 136 26 349 336 341 18 76 80 100 119 127 135 135 141 139 136 136 138 135 131
157 161 159 158 163 165 167 171 168 164 123 124 159 173 185 91 127 122 123 129 88 65 116 162 172 202 158 173 217 141 183 221 235 107 63 6 351 358 356 3 56 103 121 132 149 153 153 148 141 136 138 142 145 142
137 149 148 149 155 160 159 162 163 143 84 77 96 171 145 179 144 143 147 127 41 59 149 185 187 199 164 200 191 193 210 215 97 47 10 351 349 356 357 351 82 147 148 143 150 155 156 154 150 152 152 154 150 149
137 123 140 143 143 149 151 146 141 103 90 99 117 106 114 70 116 125 150 45 332 249 132 188 206 114 121 197 192 203 170 86 66 38 16 1 351 336 348 13 71 128 138 143 150 154 157 158 164 166 162 162 162 163
116 133 122 138 149 141 144 111 85 83 101 108 175 134 113 138 136 126 90 15 42 59 298 57 347 214 214 186 189 132 133 100 67 32 16 10 2 353 354 26 104 142 153 153 158 163 165 167 168 169 173 172 173 176
143 139 132 143 144 130 82 76 62 84 93 121 114 123 136 152 159 154 104 356 24 42 150 217 239 222 192 81 121 133 106 52 18 6 3 2 6 16 24 74 135 150 159 164 168 169 174 172 182 188 183 182 182 184
144 143 148 137 136 87 71 57 87 60 118 113 126 136 132 148 161 169 246 299 306 245 201 218 235 44 359 38 24 11 4 4 3 343 338 349 357 8 25 86 103 133 141 163 172 183 183 191 197 192 194 193 198 202
148 144 124 121 96 90 91 111 103 101 91 116 132 161 158 186 201 203 217 254 251 230 214 208 246 190 55 31 9 324 327 299 332 340 330 328 333 339 339 0 60 118 167 183 195 201 201 213 213 205 210 208 209 214
135 147 136 95 69 77 86 89 104 135 99 121 123 158 182 204 217 227 238 242 246 239 235 237 239 220 228 263 341 10 341 313 290 282 300 311 326 319 309 289 274 268 250 236 226 226 230 223 225 219 218 218 222 219
124 121 94 74 78 66 80 103 131 139 175 150 169 189 222 231 232 201 246 244 251 246 241 250 255 261 266 270 282 283 289 295 284 282 284 281 285 297 300 288 282 280 277 266 250 237 233 230 236 231 230 225 228 224
123 74 72 79 84 95 110 152 155 168 177 182 178 198 202 210 192 235 250 246 245 248 244 249 256 263 262 262 264 265 263 263 266 267 271 276 274 271 273 277 285 288 282 276 264 255 252 252 260 265 240 234 234 233
68 53 65 49 110 141 160 168 189 202 214 183 205 213 190 193 231 245 239 235 236 245 252 251 249 254 260 263 261 258 258 260 262 265 262 262 268 269 270 273 273 273 271 272 273 270 263 260 263 262 247 242 242 240
97 136 175 165 151 192 173 186 202 211 213 213 226 225 207 233 252 249 223 231 247 250 238 261 261 261 259 262 267 267 266 262 260 261 262 260 259 262 266 268 269 270 271 267 267 267 269 265 261 266 263 256 253 246
162 155 168 181 171 176 210 229 225 211 203 212 208 193 197 227 234 237 232 240 257 270 277 274 259 252 259 272 275 273 272 266 255 256 263 264 261 255 253 257 263 269 265 261 266 267 267 267 266 266 267 263 256 254
215 191 175 183 204 230 257 253 218 217 225 218 214 203 212 217 240 218 206 311 318 317 309 288 262 234 245 267 297 323 317 284 274 280 277 271 264 259 256 256 257 258 257 256 261 269 271 272 272 270 268 267 265 257
223 217 205 220 199 226 227 225 232 225 224 232 228 237 243 253 258 283 288 285 285 291 289 282 271 264 269 281 287 289 288 302 302 294 289 282 270 263 234 238 257 271 276 279 284 283 281 282 280 278 277 274 269 259
243 202 206 226 220 232 232 218 246 245 237 238 254 264 263 261 267 278 276 272 270 268 269 270 271 270 270 272 273 273 275 281 281 279 284 284 280 277 278 281 283 284 287 291 293 291 293 292 291 286 281 274 260 249
234 202 234 245 260 260 263 252 253 258 259 257 256 258 265 274 276 272 268 267 268 268 268 266 266 265 267 269 270 273 275 273 270 272 274 273 275 273 277 281 283 283 284 287 291 292 291 288 284 278 272 263 252 239
220 224 234 250 261 270 258 252 253 253 256 254 254 257 261 263 268 283 279 264 268 270 271 269 268 270 268 267 267 267 268 268 266 263 264 269 273 273 272 272 270 274 279 283 285 287 285 281 277 275 270 257 238 224
250 245 242 262 263 251 233 226 250 264 249 249 256 247 242 231 247 260 267 299 312 311 307 300 292 286 277 273 271 273 276 278 279 277 274 272 263 261 264 261 263 266 269 269 270 266 264 264 277 302 298 274 258 261
Wind_Speed_850mb
69 67 65 62 57 52 46 41 36 31 26 22 19 17 15 16 18 17 16 13 18 14 7 10 5 4 5 4 9 6 8 11 10 14 14 9 12 6 8 6 9 17 14 14 8 15 22 11 12 9 9 6 3 6
70 71 68 64 59 53 47 42 37 32 27 23 20 17 14 12 14 14 11 15 14 11 6 18 14 10 6 1 5 3 7 3 6 8 4 3 8 7 8 15 6 8 7 8 8 10 7 5 1 4 4 10 10 7
74 73 70 65 60 54 48 42 38 32 28 24 20 17 13 12 13 11 7 8 14 8 13 10 14 14 6 4 4 7 1 3 2 3 5 3 5 5 9 10 6 9 5 7 7 9 5 5 12 16 14 12 5 6
77 75 71 66 60 55 48 43 38 33 27 24 21 18 14 12 13 10 4 7 17 6 10 17 17 8 10 5 2 3 6 4 1 3 5 5 6 4 3 6 10 11 9 4 11 11 7 2 5 5 0 3 4 8
78 75 71 66 60 54 48 43 38 32 27 24 21 18 15 12 12 10 5 8 9 11 5 11 16 13 11 5 3 5 4 4 6 7 7 2 2 6 2 6 13 12 4 10 6 4 5 18 14 14 14 14 12 12
79 75 70 64 59 53 47 41 36 31 27 23 21 18 15 12 9 9 3 4 4 14 4 9 6 11 12 10 8 8 6 4 5 7 3 2 1 5 7 9 8 11 12 11 3 5 12 11 18 18 16 15 13 12
77 72 67 62 57 51 45 40 35 30 25 22 20 17 14 12 10 7 4 3 4 10 3 8 13 9 13 7 5 5 4 4 5 4 7 6 5 7 6 15 16 15 16 16 19 17 21 13 12 15 13 13 10 8
73 69 65 60 55 49 43 38 32 28 23 20 19 17 14 11 10 5 4 2 5 3 2 4 6 14 9 10 11 6 7 6 5 3 5 10 5 8 8 18 10 11 11 13 16 12 23 30 10 21 11 11 12 16
70 66 62 58 53 47 41 35 30 26 22 19 18 16 13 9 5 9 4 2 3 3 1 3 7 8 6 6 4 6 4 8 3 7 6 6 8 11 9 14 14 19 12 16 24 22 22 18 18 18 21 32 15 20
67 64 58 54 50 45 39 34 28 24 21 19 21 8 7 10 8 8 2 2 2 2 0 3 1 5 3 8 6 5 2 1 6 5 3 8 17 21 14 13 13 22 17 20 25 21 5 5 14 18 15 26 22 25
63 60 55 51 46 42 37 32 27 24 22 22 9 7 11 16 8 4 6 8 5 8 4 2 1 3 4 6 4 4 2 2 6 7 6 6 8 9 15 16 14 17 17 14 11 11 12 13 12 18 27 30 27 26
54 51 50 46 42 39 35 31 27 25 21 19 13 15 15 5 5 8 6 5 8 5 7 5 6 3 1 3 5 3 3 4 4 2 6 6 11 20 18 13 6 10 16 11 7 13 16 17 22 31 32 30 29 31
51 42 43 44 39 35 32 29 26 24 24 23 7 6 4 4 4 10 15 7 9 8 4 6 8 5 2 2 1 5 5 3 2 6 3 8 14 17 16 14 13 13 14 16 18 18 21 27 30 32 35 32 34 33
46 38 41 41 37 32 29 28 27 29 21 6 7 3 5 7 6 3 2 6 7 5 4 5 8 6 5 8 2 5 2 4 5 6 4 11 21 20 11 9 7 9 9 11 14 18 23 27 32 32 32 32 32 32
59 50 46 40 36 32 29 29 30 31 7 4 2 6 7 3 5 8 7 11 7 4 3 7 6 4 7 6 4 2 7 7 6 3 7 14 18 16 6 8 3 8 12 12 15 22 26 31 33 35 31 29 28 28
54 52 44 39 33 30 28 28 31 14 6 5 4 5 5 10 12 11 9 10 6 2 3 3 4 6 6 3 8 8 4 6 7 7 12 15 17 15 12 8 2 8 11 14 18 25 31 34 36 35 34 30 28 25
53 40 41 38 30 28 29 31 24 5 6 5 5 5 3 4 9 9 4 2 3 3 4 1 7 5 3 5 6 4 3 10 10 11 14 17 17 12 11 8 4 6 10 15 20 27 32 37 33 33 32 30 28 25
24 32 32 30 30 29 29 13 8 6 6 5 6 9 5 7 10 10 4 7 3 2 1 3 2 6 4 7 6 10 12 8 8 13 17 23 22 11 6 3 3 6 10 15 21 28 35 35 27 25 27 30 26 22
44 34 25 19 15 16 7 5 9 6 6 7 7 6 6 6 5 4 1 6 5 2 0 4 5 7 6 1 6 12 7 7 10 12 15 19 18 12 7 3 5 7 9 14 21 27 31 24 20 21 24 27 21 18
42 38 38 33 23 10 8 5 8 4 4 5 6 8 7 6 6 5 3 4 3 3 7 7 4 2 2 3 2 1 3 5 8 13 12 11 14 10 6 6 4 5 9 13 18 25 29 21 17 20 22 25 22 19
37 32 30 25 26 14 8 5 4 3 4 6 7 5 4 4 6 6 5 3 7 7 7 6 3 0 1 2 4 3 6 3 3 6 10 14 13 10 6 4 3 3 5 10 15 22 26 19 17 20 23 25 22 19
32 27 18 15 11 8 7 5 5 2 2 4 4 4 5 7 9 10 7 12 12 16 12 8 4 4 4 2 4 8 8 7 10 9 11 12 14 12 9 7 6 7 10 12 17 19 21 23 20 22 24 26 32 24
32 30 13 7 6 7 5 6 3 4 5 8 6 6 8 9 7 6 10 14 19 18 21 21 20 19 21 22 21 20 16 14 12 12 13 13 15 14 12 12 12 13 16 17 19 22 22 26 28 28 26 32 30 31
22 7 6 5 5 6 4 4 3 5 6 8 7 6 8 10 7 11 10 23 22 19 19 22 23 28 30 32 35 35 30 27 27 25 21 21 23 23 22 20 19 21 19 19 20 22 24 28 34 38 34 35 36 37
5 6 5 5 4 6 6 9 8 8 7 8 7 7 7 9 7 7 11 13 15 23 23 22 24 29 34 35 36 38 37 36 39 43 41 35 34 33 35 36 35 33 29 28 28 26 25 26 29 31 33 39 43 44
4 5 7 8 9 6 8 8 9 12 8 10 11 7 7 8 8 10 7 12 17 18 14 18 22 25 27 30 34 37 41 39 40 45 48 49 53 53 51 48 46 44 38 32 30 32 33 33 32 35 36 40 44 47
4 6 8 7 5 8 9 12 10 12 13 11 9 12 8 9 10 8 9 6 12 15 17 17 18 22 25 27 29 31 32 33 37 41 40 42 43 47 50 49 48 45 35 37 32 31 32 33 34 33 33 34 37 42
7 8 12 15 11 11 8 8 10 13 14 17 14 15 10 9 6 9 2 9 17 19 19 15 12 12 12 13 14 16 16 18 24 32 37 38 42 39 38 34 30 39 38 33 29 24 24 25 26 28 30 33 33 34
7 8 13 10 5 9 12 13 16 19 19 19 22 22 29 19 19 23 27 26 23 24 25 23 18 17 18 18 20 18 18 17 18 19 21 23 18 20 16 13 13 17 18 19 30 36 38 40 41 38 36 35 35 34
10 16 11 9 9 10 15 21 18 20 25 26 25 27 32 35 35 33 32 31 33 35 35 35 34 33 35 33 33 32 30 29 28 28 30 29 26 23 22 22 21 22 24 25 27 27 38 44 45 44 44 39 30 29
5 13 13 17 16 19 22 23 22 24 24 27 31 37 42 40 41 43 45 46 46 47 49 51 51 50 49 50 49 49 51 44 41 39 38 36 35 35 34 32 31 34 35 33 32 31 32 32 31 30 29 27 26 27
14 23 18 21 25 22 19 21 27 32 34 36 41 39 39 31 32 34 23 18 23 27 31 35 40 43 41 44 45 46 49 49 48 45 45 43 39 36 34 33 30 32 36 30 27 25 24 22 21 21 21 22 23 25
19 22 20 18 14 13 17 14 11 15 22 25 25 26 27 25 14 11 7 5 7 12 16 20 22 24 27 30 31 32 35 35 39 41 44 48 52 50 42 33 31 30 28 25 25 22 20 17 16 22 27 31 33 34
Wind_Direction_850mb
196 190 186 185 183 183 183 182 180 177 177 175 171 168 165 171 181 187 196 192 189 215 201 198 207 197 199 235 275 62 224 197 220 239 244 186 252 167 249 286 256 253 238 225 250 264 266 125 149 261 98 178 287 300
189 187 184 183 181 181 180 179 177 177 177 176 172 168 162 159 169 177 203 215 208 205 229 219 218 206 194 338 308 286 339 347 352 269 232 146 193 182 286 258 179 243 286 319 265 20 56 187 278 147 228 265 298 308
186 183 181 180 179 178 178 177 176 176 177 175 171 167 161 152 159 172 206 217 196 220 228 225 222 231 231 234 220 293 118 328 289 221 326 353 213 252 223 232 277 198 213 253 283 120 245 259 247 257 262 267 290 334
181 180 178 177 177 177 177 176 175 176 175 173 170 167 158 153 153 141 92 176 184 207 244 169 206 192 226 241 269 268 300 304 11 320 260 276 266 236 302 341 277 25 173 251 252 222 269 226 352 316 271 103 49 11
179 178 176 175 176 176 176 176 175 176 175 173 170 167 163 157 165 166 108 78 179 191 271 141 186 206 207 216 233 291 302 301 275 248 241 245 27 223 213 282 250 190 232 251 34 79 279 61 45 65 76 61 47 30
177 176 174 174 174 175 176 176 176 176 175 173 171 170 170 169 164 163 241 285 4 196 240 192 148 163 196 214 225 250 276 282 268 286 296 181 346 269 244 249 122 186 209 217 144 121 120 87 69 69 59 40 31 11
173 172 171 172 174 175 175 176 177 177 176 175 173 172 173 174 179 187 225 210 4 166 241 186 166 177 188 196 195 201 204 229 258 273 241 277 199 239 263 261 164 218 242 235 210 163 127 85 90 57 36 8 357 11
168 169 170 171 173 174 175 176 178 179 177 177 174 171 172 170 159 170 173 31 27 139 185 245 129 169 174 186 181 175 198 195 200 281 234 252 194 230 254 251 240 223 209 182 170 190 159 134 134 74 24 63 70 73
167 168 169 170 172 173 174 175 178 179 178 178 173 163 158 174 178 213 221 298 359 154 194 248 216 161 159 157 139 158 190 223 146 241 222 245 214 231 241 276 244 190 171 182 170 153 133 124 96 82 68 62 74 84
165 168 168 170 173 174 174 174 174 176 175 172 161 149 179 190 172 170 221 8 203 248 238 263 215 158 237 182 135 189 211 315 237 112 243 237 253 258 289 281 263 214 230 211 199 206 206 73 37 43 69 100 111 105
164 169 170 172 173 174 175 173 172 168 167 159 156 179 178 154 144 181 208 223 177 193 191 138 221 127 24 243 100 357 71 143 249 117 265 206 241 47 326 308 282 249 226 179 151 126 96 81 92 108 110 116 114 109
163 170 174 173 175 176 175 172 171 169 166 168 155 135 137 150 172 207 189 185 222 151 138 191 131 192 132 96 239 130 251 210 252 42 247 233 43 5 359 341 328 171 168 180 172 118 105 110 128 130 128 125 121 117
161 168 170 171 172 174 175 174 172 165 152 145 131 158 182 157 134 205 180 172 173 146 111 152 169 170 157 188 176 217 220 236 314 227 267 53 359 356 16 39 71 101 125 128 122 117 122 128 133 138 134 131 128 123
165 166 164 165 166 170 173 174 172 159 147 159 167 53 225 182 215 176 171 84 109 127 114 157 163 206 158 185 162 207 88 272 242 234 136 26 349 336 341 18 76 80 100 119 127 135 135 141 139 136 136 138 135 131
157 161 159 158 163 165 167 171 168 164 123 124 159 173 185 91 127 122 123 129 88 65 116 162 172 202 158 173 217 141 183 221 235 107 63 6 351 358 356 3 56 103 121 132 149 153 153 148 141 136 138 142 145 142
137 149 148 149 155 160 159 162 163 143 84 77 96 171 145 179 144 143 147 127 41 59 149 185 187 199 164 200 191 193 210 215 97 47 10 351 349 356 357 351 82 147 148 143 150 155 156 154 150 152 152 154 150 149
137 123 140 143 143 149 151 146 141 103 90 99 117 106 114 70 116 125 150 45 332 249 132 188 206 114 121 197 192 203 170 86 66 38 16 1 351 336 348 13 71 128 138 143 150 154 157 158 164 166 162 162 162 163
116 133 122 138 149 141 144 111 85 83 101 108 175 134 113 138 136 126 90 15 42 59 298 57 347 214 214 186 189 132 133 100 67 32 16 10 2 353 354 26 104 142 153 153 158 163 165 167 168 169 173 172 173 176
143 139 132 143 144 130 82 76 62 84 93 121 114 123 136 152 159 154 104 356 24 42 150 217 239 222 192 81 121 133 106 52 18 6 3 2 6 16 24 74 135 150 159 164 168 169 174 172 182 188 183 182 182 184
144 143 148 137 136 87 71 57 87 60 118 113 126 136 132 148 161 169 246 299 306 245 201 218 235 44 359 38 24 11 4 4 3 343 338 349 357 8 25 86 103 133 141 163 172 183 183 191 197 192 194 193 198 202
148 144 124 121 96 90 91 111 103 101 91 116 132 161 158 186 201 203 217 254 251 230 214 208 246 190 55 31 9 324 327 299 332 340 330 328 333 339 339 0 60 118 167 183 195 201 201 213 213 205 210 208 209 214
135 147 136 95 69 77 86 89 104 135 99 121 123 158 182 204 217 227 238 242 246 239 235 237 239 220 228 263 341 10 341 313 290 282 300 311 326 319 309 289 274 268 250 236 226 226 230 223 225 219 218 218 222 219
124 121 94 74 78 66 80 103 131 139 175 150 169 189 222 231 232 201 246 244 251 246 241 250 255 261 266 270 282 283 289 295 284 282 284 281 285 297 300 288 282 280 277 266 250 237 233 230 236 231 230 225 228 224
123 74 72 79 84 95 110 152 155 168 177 182 178 198 202 210 192 235 250 246 245 248 244 249 256 263 262 262 264 265 263 263 266 267 271 276 274 271 273 277 285 288 282 276 264 255 252 252 260 265 240 234 234 233
68 53 65 49 110 141 160 168 189 202 214 183 205 213 190 193 231 245 239 235 236 245 252 251 249 254 260 263 261 258 258 260 262 265 262 262 268 269 270 273 273 273 271 272 273 270 263 260 263 262 247 242 242 240
97 136 175 165 151 192 173 186 202 211 213 213 226 225 207 233 252 249 223 231 247 250 238 261 261 261 259 262 267 267 266 262 260 261 262 260 259 262 266 268 269 270 271 267 267 267 269 265 261 266 263 256 253 246
162 155 168 181 171 176 210 229 225 211 203 212 208 193 197 227 234 237 232 240 257 270 277 274 259 252 259 272 275 273 272 266 255 256 263 264 261 255 253 257 263 269 265 261 266 267 267 267 266 266 267 263 256 254
215 191 175 183 204 230 257 253 218 217 225 218 214 203 212 217 240 218 206 311 318 317 309 288 262 234 245 267 297 323 317 284 274 280 277 271 264 259 256 256 257 258 257 256 261 269 271 272 272 270 268 267 265 257
223 217 205 220 199 226 227 225 232 225 224 232 228 237 243 253 258 283 288 285 285 291 289 282 271 264 269 281 287 289 288 302 302 294 289 282 270 263 234 238 257 271 276 279 284 283 281 282 280 278 277 274 269 259
243 202 206 226 220 232 232 218 246 245 237 238 254 264 263 261 267 278 276 272 270 268 269 270 271 270 270 272 273 273 275 281 281 279 284 284 280 277 278 281 283 284 287 291 293 291 293 292 291 286 281 274 260 249
234 202 234 245 260 260 263 252 253 258 259 257 256 258 265 274 276 272 268 267 268 268 268 266 266 265 267 269 270 273 275 273 270 272 274 273 275 273 277 281 283 283 284 287 291 292 291 288 284 278 272 263 252 239
220 224 234 250 261 270 258 252 253 253 256 254 254 257 261 263 268 283 279 264 268 270 271 269 268 270 268 267 267 267 268 268 266 263 264 269 273 273 272 272 270 274 279 283 285 287 285 281 277 275 270 257 238 224
250 245 242 262 263 251 233 226 250 264 249 249 256 247 242 231 247 260 267 299 312 311 307 300 292 286 277 273 271 273 276 278 279 277 274 272 263 261 264 261 263 266 269 269 270 266 264 264 277 302 298 274 258 261